Location: Unspecified
(45.6669°N, 0.0000°E)
Time: 13:32:34
(UTC+00:00)

ISS - Pass Details

Date: 26 May 2019
Orbit: 407 x 418 km, 51.6° (Epoch: 20 June)

Event Time Altitude Azimuth Distance (km) Brightness Sun altitude
Rises 20:30:32 0° 282° (WNW) 2,351 1.2 -8.4°
Reaches altitude 10° 20:32:49 10° 295° (WNW) 1,491 0.4 -8.7°
Maximum altitude 20:35:46 28° 357° (N) 812 -1.7 -9.1°
Drops below altitude 10° 20:38:44 10° 59° (ENE) 1,498 -1.1 -9.4°
Sets 20:41:02 0° 71° (ENE) 2,364 -0.2 -9.7°
